Regional Weather Roundup
Issued by NWS

Home | Current Version | Previous Version | Graphics & Text | Print | Product List | Glossary On
Versions: 1 2 3 4 5 6 7 8 9 10 11 12 13 14 15 16 17 18 19 20 21 22 23 24 25 26 27 28 29 30 31 32 33 34 35 36 37 38 39 40 41 42 43 44 45 46 47 48 49 50
000
ASUS43 KLOT 192103
RWRIL

ILLINOIS REGIONAL WEATHER ROUNDUP
NATIONAL WEATHER SERVICE CHICAGO/ROMEOVILLE IL
400 PM CDT SAT MAY 19 2018

NOTE: "FAIR" INDICATES FEW OR NO CLOUDS BELOW 12,000 FEET WITH NO
SIGNIFICANT WEATHER AND/OR OBSTRUCTIONS TO VISIBILITY.

* THESE STATIONS ARE NOT UNDER NWS QUALITY CONTROL. THEY ALSO MAY NOT
  REPORT WEATHER SUCH AS PRECIPITATION OR FOG.

ILZ001-002-007-009-015-016-024-192200-
NORTHWEST ILLINOIS

CITY           SKY/WX    TMP DP  RH WIND       PRES   REMARKS
MOLINE         FAIR      83  60  45 N3        29.85F HX  83
SAVANNA*       FAIR      79  62  56 NW5       29.87S HX  80
$$

ILZ003-004-008-010-011-017-018-192200-
NORTH CENTRAL ILLINOIS

CITY           SKY/WX    TMP DP  RH WIND       PRES   REMARKS
ROCKFORD       PTSUNNY   72  60  66 CALM      29.89F
FREEPORT*      FAIR      75  59  57 N10       29.89S
ROCHELLE*      FAIR      72  62  72 CALM      29.88F
DE KALB*       CLOUDY    68  62  79 NW7       29.90F
PERU*          FAIR      82  60  47 NW10G17   29.87F HX  82
$$

ILZ005-006-012>014-019>023-192200-
NORTHEAST ILLINOIS

CITY           SKY/WX    TMP DP  RH WIND       PRES   REMARKS
CHICAGO-OHARE  CLOUDY    68  59  73 W7        29.88S
CHICAGO-MIDWAY CLOUDY    69  61  75 W6        29.88S
AURORA         CLOUDY    68  62  81 NW6       29.90S
LANSING*       CLOUDY    69  64  85 NW5       29.89F
JOLIET*        PTSUNNY   73  64  73 N8        29.88F
WAUKEGAN       CLOUDY    58  54  86 E5        29.89R
DUPAGE AIRPORT CLOUDY    67  62  84 W7        29.89S
KANKAKEE*      FAIR      74  62  65 N7        29.88F
WHEELING       CLOUDY    69  61  75 W6        29.90R
MORRIS*        PTSUNNY   75  62  62 NW5       29.87F
ROMEOVILLE*    FAIR      69  61  76 N7        29.89S
NORTHERLY ISL    N/A     51  49  92 NE3         N/A
$$

LMZ740>746-192200-
SOUTHERN LAKE MICHIGAN

STATION/POSITION SKY/WX   TEMP    WIND        PRES    VSBY  WAVE
                          AIR SEA DIR/SP/G                  HT/PER
                          (F)     (DEG/KT/KT) (MB)    (MI)  (FT/S)
WILMETTE HARBOR            48 49   60/  2/  2   N/A           1/ 4
HARRISON CRIB              50      90/  3/  4   N/A
BURNHAM HARBOR             51      50/  2/  6   N/A
CALUMET HARBOR             51      40/  5/  7 1012.2R
BURNS HARBOR               53      70/  6/  9 1013.2R
MICHIGAN CITY              52      40/ 10/ 11   N/A
MICHIGAN CITY 6N           51 52   60/  8/ 10   N/A           1/ 4
ST. JOSEPH                 53 55   70/  4/  6 1013.1F         1
$$

ILZ025>027-034>036-040-047-049-050-058-095>099-192200-
WEST-CENTRAL ILLINOIS

CITY           SKY/WX    TMP DP  RH WIND       PRES   REMARKS
QUINCY         CLOUDY    76  64  66 SE6       29.86F
GALESBURG*     FAIR      82  58  43 SW5       29.87F HX  82
MACOMB*        MOSUNNY   81  62  52 S8G16     29.89F HX  82
JACKSONVILLE*  CLOUDY    76  64  65 S13       29.89F
PITTSFIELD*    CLOUDY    76  68  74 SE7       29.89F
$$

ILZ028>032-037-038-041>044-048-051>054-059>061-192200-
CENTRAL ILLINOIS

CITY           SKY/WX    TMP DP  RH WIND       PRES   REMARKS
PONTIAC        FAIR      82  58  43 NW16G24   29.87F HX  82
DECATUR        FAIR      81  62  52 W9        29.89S HX  82
PEORIA         FAIR      83  61  47 CALM      29.87S HX  83
LACON*         FAIR      82  59  46 NW8       29.85F HX  82
LINCOLN*       FAIR      87  60  39 W6        29.88S HX  86
SPRINGFIELD    FAIR      82  66  58 SW17G28   29.89R HX  84
TAYLORVILLE    FAIR      80  66  61 W16       29.91S HX  82
$$

ILZ033-039-045-046-055>057-062-063-192200-
EAST-CENTRAL ILLINOIS

CITY           SKY/WX    TMP DP  RH WIND       PRES   REMARKS
CHAMPAIGN      FAIR      85  57  38 W13G18    29.87F HX  84
DANVILLE*      FAIR      82  64  55 W8        29.85F HX  83
RANTOUL*       FAIR      85  60  41 W13       29.86F HX  85
MATTOON        FAIR      81  66  60 SW8       29.88F HX  83
PARIS*         FAIR      80  67  64 W13       29.88F HX  82
$$

ILZ079-100>102-192200-
SOUTHWEST ILLINOIS

CITY           SKY/WX    TMP DP  RH WIND       PRES   REMARKS
ALTON          PTSUNNY   75  61  60 W15G33    29.95F
BELLEVILLE     TSTM      76  62  61 NW14G24   29.97R
CAHOKIA*       CLOUDY    70  62  76 VRB5      29.94F
$$

ILZ064>066-069>071-074>076-080>082-084>086-088>090-092>094-192200-
SOUTH-CENTRAL ILLINOIS

CITY           SKY/WX    TMP DP  RH WIND       PRES   REMARKS
CARBONDALE     FAIR      82  68  62 W9        29.95R HX  85
CAIRO*         FAIR      82  71  68 CALM      29.93S HX  87
EFFINGHAM*     PTSUNNY   82  65  57 SW14      29.93R HX  84
MARION         PTSUNNY   82  63  51 NW9       29.95R HX  83
CENTRALIA*     CLOUDY    80  69  70 SW14      29.94S HX  83
SALEM*         PTSUNNY   80  67  64 SW12      29.94R HX  83
METROPOLIS*    FAIR      86  68  55 W8        29.94R HX  89
$$

ILZ067-068-072-073-078-083-087-091-192200-
SOUTHEAST ILLINOIS

CITY           SKY/WX    TMP DP  RH WIND       PRES   REMARKS
LAWRENCEVILLE  PTSUNNY   82  66  58 W7        29.90F HX  84
FLORA*         FAIR      82  67  59 SW7       29.93R HX  85
FAIRFIELD*     FAIR      82  66  58 SW8       29.92S HX  84
HARRISBURG*    FAIR      84  67  56 W9        29.94S HX  86
ROBINSON*      FAIR      81  67  62 W9        29.90F HX  83
CARMI*         FAIR      83  66  55 W10G17    29.92S HX  85
$$

ABBREVIATIONS USED IN REMARKS
   TC - TEMPERATURE IN CELSIUS
  WCI - WIND CHILL INDEX
   HX - HEAT INDEX
  VSB - VISIBILITY
$$





USA.gov is the U.S. government's official web portal to all federal, state and local government web resources and services.